Weather in Severoonezhsk

Russia / Arkhangel'skaya Oblast'     62°35′27″N   39°50′27″E
temp.,
°C
wind,
m/s
gust,
m/s
humid.,
%
clouds,
%
prec.,
mm/h
press.,
hPa
HPBL,
m
24 may, tue
tue2400:00−1n41097100 1.5 1005991
03:00−1n4109690 2.1 1006748
06:000n489299 0.3 1007670
09:00+1nne4680100 0.4 1008905
12:00+3nne3677100 0.0 10101048
15:00+4nne3576100 0.1 10121091
18:00+4n347597 0.0 1013787
21:00+3nnw268772 0.0 1014166
25 may, wed
wed2500:00−1nnw26975 0.0 1015113
03:00−3nnw269812 0.0 1015104
06:00+2nnw368341 0.0 1015259
09:00+7nnw456652 0.0 1014909
12:00+9nnw4557100 0.0 10131535
15:00+8nnw467077 0.0 10131019
18:00+7n377789 0.1 1012848
21:00+5nnw498913 0.1 1012418
26 may, thu
thu2600:00+3nw4119629 0.0 1011354
03:00+2nnw41197100 0.0 1009349
06:00+3nw3897100 1.6 1008321
09:00+4nnw3796100 2.4 1006453
12:00+7nnw338793 0.0 1005581
15:00+6wnw2490100 0.1 1004409
18:00+7wsw2592100 0.1 1002286
21:00+6sw2794100 0.1 1000245
27 may, fri
fri2700:00+6sw2695100 0.0 999172
03:00+5ssw2794100 0.0 998239
06:00+6s3785100 0.0 997278
09:00+12s46546 0.0 996994
12:00+15s4539100 0.0 9962306
15:00+16s463781 0.0 9962340
18:00+12sse4772100 0.1 997884
21:00+8se3793100 0.3 997502
28 may, sat
sat2800:00+9se3997100 2.0 996665
03:00+9se3798100 2.8 995488
06:00+8sse2497100 0.9 995224
09:00+11sse3582100 1.0 995735
12:00+10se468165 0.2 995566
15:00+15se3457100 0.3 9941401
18:00+12ese2483100 1.2 994406
21:00+9ene2496100 1.8 994148